Three Rivers, MI

5:36 PM EDT on August 23, 2016 (GMT -0400)
Three Rivers Municipal-Haines

Weather History for KHAI - March, 2013

Change the Weather History Date:

Thursday, March 21, 2013

  Actual Average Record
Temperature  
Mean Temperature 20 °F -  
Max Temperature 28 °F 47 °F 83 °F (2012)
Min Temperature 13 °F 27 °F 6 °F (2007)
Degree Days  
Heating Degree Days 44    
Moisture  
Dew Point 17 °F    
Average Humidity 79    
Maximum Humidity 89    
Minimum Humidity 66    
Precipitation  
Precipitation 0.00 in - - ()
Sea Level Pressure  
Sea Level Pressure 29.95 in    
Wind  
Wind Speed 7 mph (West)    
Max Wind Speed 21 mph    
Max Gust Speed 23 mph    
Visibility 7 miles    
Events Snow    
Averages and records for this station are not official NWS values.
T = Trace of Precipitation, MM = Missing Value Source: NWS Daily Summary

Daily Weather History Graph

Daily Weather History Graph

Search for Another Location

Airport or City:

Trip Planner

Search our weather history database for the weather conditions in past years. The results will help you decide how hot, cold, wet, or windy it might be!

Date:

Astronomy

Mar. 21, 2013 Rise Set
Actual Time 7:43 AM EDT 7:55 PM EDT
Civil Twilight 7:15 AM EDT 8:23 PM EDT
Nautical Twilight 6:43 AM EDT 8:56 PM EDT
Astronomical Twilight 6:09 AM EDT 9:30 PM EDT
Moon 2:20 PM EDT (3/21) 4:09 AM EDT (3/21)
Length of Visible Light 13h 08m
Length of Day
12h 12m
Waxing Gibbous, 68% of the Moon is Illuminated
Mar 21
Waxing Gibbous
Mar 27
Full
Apr 3
Last Quarter
Apr 10
New
Apr 18
First Quarter

Hourly Weather History & Observations

Time (EDT) Temp. Windchill Dew Point Humidity Pressure Visibility Wind Dir Wind Speed Gust Speed Precip Events Conditions
12:15 AM 14.7 °F 9.0 °F 11.1 °F 86% 29.96 in 4.0 mi West 3.5 mph - N/A Snow Light Snow
12:35 AM 13.8 °F 4.9 °F 10.4 °F 86% 29.96 in 10.0 mi West 5.8 mph - N/A   Scattered Clouds
12:54 AM 14.2 °F 6.7 °F 10.9 °F 87% 29.96 in 7.0 mi West 4.6 mph - N/A Snow Light Snow
1:35 AM 15.8 °F 8.6 °F 12.9 °F 88% 29.95 in 2.0 mi West 4.6 mph - N/A Snow Light Snow
2:15 AM 15.6 °F 10.0 °F 12.6 °F 88% 29.94 in 5.0 mi WSW 3.5 mph - N/A Snow Light Snow
2:35 AM 15.3 °F 7.9 °F 12.2 °F 88% 29.94 in 10.0 mi West 4.6 mph - N/A   Clear
2:54 AM 15.3 °F 7.9 °F 12.2 °F 88% 29.94 in 10.0 mi West 4.6 mph - N/A   Clear
3:15 AM 14.4 °F - 11.3 °F 88% 29.94 in 10.0 mi Calm Calm - N/A   Clear
3:35 AM 14.9 °F 9.2 °F 12.2 °F 89% 29.93 in 10.0 mi WSW 3.5 mph - N/A   Mostly Cloudy
3:54 AM 15.6 °F 8.3 °F 12.6 °F 88% 29.93 in 10.0 mi WSW 4.6 mph - N/A   Overcast
4:15 AM 15.6 °F 10.0 °F 12.6 °F 88% 29.93 in 10.0 mi WSW 3.5 mph - N/A   Overcast
4:34 AM 15.4 °F 9.8 °F 12.4 °F 88% 29.92 in 7.0 mi SW 3.5 mph - N/A Snow Light Snow
4:54 AM 14.9 °F 7.5 °F 12.2 °F 89% 29.92 in 10.0 mi WSW 4.6 mph - N/A   Mostly Cloudy
5:15 AM 14.7 °F 9.0 °F 11.8 °F 88% 29.91 in 10.0 mi SW 3.5 mph - N/A   Scattered Clouds
5:34 AM 15.4 °F 8.1 °F 12.6 °F 88% 29.91 in 10.0 mi WSW 4.6 mph - N/A   Mostly Cloudy
5:55 AM 14.9 °F - 12.2 °F 89% 29.91 in 10.0 mi Calm Calm - N/A   Overcast
6:15 AM 15.6 °F 10.0 °F 12.9 °F 89% 29.91 in 10.0 mi SW 3.5 mph - N/A   Overcast
6:34 AM 16.5 °F 11.0 °F 13.8 °F 89% 29.92 in 2.5 mi WSW 3.5 mph - N/A Snow Light Snow
6:55 AM 16.9 °F 11.5 °F 14.0 °F 88% 29.92 in 1.8 mi WSW 3.5 mph - N/A Snow Light Snow
7:15 AM 17.2 °F 11.9 °F 14.4 °F 88% 29.92 in 3.0 mi SW 3.5 mph - N/A Snow Light Snow
7:34 AM 16.7 °F - 14.0 °F 89% 29.92 in 7.0 mi Calm Calm - N/A Snow Light Snow
7:55 AM 17.6 °F 12.3 °F 14.9 °F 89% 29.92 in 5.0 mi WSW 3.5 mph - N/A Snow Light Snow
8:15 AM 18.1 °F 12.9 °F 15.4 °F 89% 29.93 in 3.0 mi WSW 3.5 mph - N/A Snow Light Snow
8:55 AM 20.1 °F 15.2 °F 17.4 °F 89% 29.92 in 4.0 mi WSW 3.5 mph - N/A Snow Light Snow
9:14 AM 21.2 °F 13.6 °F 18.1 °F 88% 29.93 in 2.5 mi West 5.8 mph - N/A Snow Light Snow
9:34 AM 22.1 °F 13.7 °F 19.0 °F 88% 29.93 in 1.2 mi West 6.9 mph - N/A Snow Light Snow
9:55 AM 23.4 °F 12.8 °F 19.8 °F 86% 29.93 in 1.8 mi WNW 10.4 mph - N/A Snow Light Snow
10:14 AM 24.6 °F 14.4 °F 20.1 °F 83% 29.93 in 3.0 mi WNW 10.4 mph 16.1 mph N/A Snow Light Snow
10:35 AM 24.6 °F 14.4 °F 20.1 °F 83% 29.94 in 2.0 mi WNW 10.4 mph - N/A Snow Light Snow
10:55 AM 25.2 °F 15.7 °F 20.5 °F 82% 29.93 in 1.5 mi WNW 9.2 mph - N/A Snow Light Snow
11:14 AM 25.3 °F 15.3 °F 20.5 °F 82% 29.94 in 1.8 mi West 10.4 mph - N/A Snow Light Snow
11:35 AM 26.1 °F 13.6 °F 21.2 °F 82% 29.94 in 2.5 mi WNW 16.1 mph - N/A Snow Light Snow
11:55 AM 25.9 °F 14.8 °F 20.8 °F 81% 29.95 in 2.0 mi WNW 12.7 mph - N/A Snow Light Snow
12:14 PM 26.4 °F 14.5 °F 20.8 °F 79% 29.95 in 2.0 mi WNW 15.0 mph - N/A Snow Light Snow
12:35 PM 26.2 °F 15.8 °F 20.7 °F 79% 29.96 in 1.8 mi WNW 11.5 mph 18.4 mph N/A Snow Light Snow
12:54 PM 26.2 °F 15.2 °F 21.4 °F 82% 29.96 in 1.2 mi West 12.7 mph 18.4 mph N/A Snow Light Snow
1:14 PM 27.1 °F 16.4 °F 21.9 °F 81% 29.96 in 1.5 mi West 12.7 mph 16.1 mph N/A Snow Light Snow
1:35 PM 27.5 °F 16.3 °F 22.3 °F 81% 29.96 in 3.0 mi WNW 13.8 mph - N/A Snow Light Snow
1:54 PM 27.7 °F 16.1 °F 22.3 °F 80% 29.96 in 3.0 mi West 15.0 mph - N/A Snow Light Snow
2:14 PM 28.6 °F 17.7 °F 22.8 °F 79% 29.95 in 4.0 mi West 13.8 mph 20.7 mph N/A Snow Light Snow
2:35 PM 28.0 °F 15.7 °F 21.9 °F 78% 29.95 in 5.0 mi West 17.3 mph - N/A Snow Light Snow
2:54 PM 28.0 °F 17.0 °F 21.7 °F 77% 29.95 in 5.0 mi West 13.8 mph - N/A Snow Light Snow
3:15 PM 28.0 °F 14.9 °F 21.7 °F 77% 29.95 in 4.0 mi West 19.6 mph 23.0 mph N/A Snow Light Snow
3:35 PM 27.5 °F 15.0 °F 21.2 °F 77% 29.95 in 4.0 mi West 17.3 mph 21.9 mph N/A Snow Light Snow
3:54 PM 27.5 °F 15.9 °F 21.4 °F 78% 29.95 in 4.0 mi West 15.0 mph - N/A Snow Light Snow
4:15 PM 27.3 °F 15.2 °F 21.0 °F 77% 29.95 in 5.0 mi West 16.1 mph - N/A Snow Light Snow
4:34 PM 27.9 °F 14.4 °F 20.5 °F 74% 29.95 in 10.0 mi West 20.7 mph - N/A   Overcast
4:55 PM 28.2 °F 14.8 °F 20.1 °F 72% 29.96 in 10.0 mi West 20.7 mph - N/A   Overcast
5:15 PM 28.9 °F 17.7 °F 19.9 °F 69% 29.96 in 10.0 mi WNW 15.0 mph 20.7 mph N/A   Overcast
5:34 PM 28.2 °F 16.8 °F 19.4 °F 70% 29.96 in 10.0 mi West 15.0 mph 20.7 mph N/A   Overcast
5:55 PM 27.5 °F 15.9 °F 18.5 °F 69% 29.96 in 10.0 mi West 15.0 mph - N/A   Overcast
6:15 PM 27.3 °F 18.4 °F 18.0 °F 68% 29.96 in 10.0 mi West 9.2 mph - N/A   Overcast
6:34 PM 27.5 °F 16.3 °F 18.1 °F 68% 29.96 in 10.0 mi WNW 13.8 mph 19.6 mph N/A   Overcast
6:55 PM 27.1 °F 15.4 °F 17.1 °F 66% 29.96 in 10.0 mi WNW 15.0 mph 18.4 mph N/A   Mostly Cloudy
7:15 PM 26.6 °F 15.2 °F 16.5 °F 66% 29.97 in 10.0 mi NW 13.8 mph 18.4 mph N/A   Overcast
7:34 PM 26.6 °F 15.7 °F 16.7 °F 66% 29.97 in 10.0 mi NW 12.7 mph 16.1 mph N/A   Overcast
7:55 PM 26.6 °F 14.7 °F 16.7 °F 66% 29.97 in 10.0 mi NW 15.0 mph 19.6 mph N/A   Overcast
8:14 PM 26.4 °F 15.5 °F 16.5 °F 66% 29.97 in 10.0 mi NW 12.7 mph 18.4 mph N/A   Overcast
8:34 PM 26.4 °F 18.0 °F 17.2 °F 68% 29.97 in 10.0 mi NW 8.1 mph - N/A   Overcast
8:55 PM 26.4 °F 17.3 °F 17.4 °F 69% 29.97 in 10.0 mi NW 9.2 mph - N/A   Overcast
9:14 PM 26.6 °F 18.2 °F 17.6 °F 69% 29.97 in 10.0 mi WNW 8.1 mph - N/A   Overcast
9:35 PM 26.4 °F 15.0 °F 17.1 °F 68% 29.97 in 10.0 mi WNW 13.8 mph 18.4 mph N/A   Overcast
9:55 PM 26.2 °F 15.8 °F 16.3 °F 66% 29.97 in 10.0 mi NW 11.5 mph - N/A   Overcast
10:14 PM 26.1 °F 16.8 °F 16.3 °F 67% 29.97 in 10.0 mi NW 9.2 mph - N/A   Overcast
10:35 PM 25.7 °F 19.0 °F 16.0 °F 67% 29.98 in 10.0 mi NW 5.8 mph - N/A   Overcast
10:55 PM 25.7 °F 18.0 °F 15.8 °F 66% 29.98 in 10.0 mi NW 6.9 mph - N/A   Overcast
11:14 PM 25.7 °F 19.0 °F 16.0 °F 67% 29.98 in 10.0 mi WNW 5.8 mph - N/A   Overcast
11:35 PM 25.7 °F 19.0 °F 16.7 °F 69% 29.99 in 10.0 mi WNW 5.8 mph - N/A   Overcast
11:55 PM 25.7 °F 20.1 °F 16.7 °F 69% 30.00 in 10.0 mi WNW 4.6 mph - N/A   Overcast